Weather History for Pine Bluff, AR

Change the Weather History Date:

Monday, July 15, 2013

  Actual Average Record
Temperature  
Mean Temperature 81 °F 82 °F  
Max Temperature 93 °F 92 °F 107 °F (1980)
Min Temperature 68 °F 72 °F 56 °F (1967)
Degree Days  
Heating Degree Days 0 0  
Month to date heating degree days 0 0  
Since 1 June heating degree days 0 0  
Since 1 July heating degree days 0 0  
Cooling Degree Days 16 17  
Month to date cooling degree days 211 254  
Year to date cooling degree days 899 983  
Since 1 June cooling degree days 632 676  
Growing Degree Days 30 (Base 50)    
Moisture  
Dew Point 69 °F    
Average Humidity 69    
Maximum Humidity 97    
Minimum Humidity 41    
Precipitation  
Precipitation 0.00 in 0.13 in 2.82 in (1989)
Month to date precipitation 0.03 1.89  
Year to date precipitation 29.45 28.67  
Snow  
Snow 0.00 in 0.00 in - ()
Month to date snowfall 0.0 0.0  
Since 1 June snowfall 0.0 0.0  
Since 1 July snowfall 0.0 0.0  
Snow Depth 0.00 in    
Sea Level Pressure  
Sea Level Pressure 30.09 in    
Wind  
Wind Speed 6 mph (ESE)    
Max Wind Speed 15 mph    
Max Gust Speed 18 mph    
Visibility 10 miles    
Events      
T = Trace of Precipitation, MM = Missing Value Source: NWS Daily Summary

Daily Weather History Graph

Daily Weather History Graph

Search for Another Location

Airport:

Trip Planner

Search our weather history database for the weather conditions in past years. The results will help you decide how hot, cold, wet, or windy it might be!

Date:

Astronomy

Jul. 15, 2013 Rise Set
Actual Time 6:07 AM CDT 8:19 PM CDT
Civil Twilight 5:38 AM CDT 8:48 PM CDT
Nautical Twilight 5:03 AM CDT 9:23 PM CDT
Astronomical Twilight 4:25 AM CDT 10:00 PM CDT
Moon 1:05 PM CDT (7/15) No Moon Set
Length of Visible Light 15h 09m
Length of Day
14h 12m
Waxing Crescent, 45% of the Moon is Illuminated
Jul 15
Waxing Crescent
Jul 15
First Quarter
Jul 22
Full
Jul 29
Last Quarter
Aug 6
New

Hourly Weather History & Observations

Time (CDT) Temp. Heat Index Dew Point Humidity Pressure Visibility Wind Dir Wind Speed Gust Speed Precip Events Conditions
12:53 AM 72.0 °F - 70.0 °F 93% 30.03 in 10.0 mi SSE 5.8 mph - 0.01 in   Clear
1:53 AM 72.0 °F - 70.0 °F 93% 30.02 in 9.0 mi Calm Calm - N/A   Clear
2:53 AM 71.1 °F - 69.1 °F 93% 30.03 in 7.0 mi Calm Calm - N/A   Clear
3:53 AM 70.0 °F - 68.0 °F 93% 30.04 in 10.0 mi East 4.6 mph - N/A   Clear
4:53 AM 70.0 °F - 68.0 °F 93% 30.06 in 10.0 mi Calm Calm - N/A   Clear
5:53 AM 68.0 °F - 66.9 °F 96% 30.08 in 7.0 mi Calm Calm - N/A   Partly Cloudy
6:53 AM 71.1 °F - 69.1 °F 93% 30.10 in 10.0 mi Calm Calm - N/A   Clear
7:53 AM 73.9 °F - 71.1 °F 91% 30.12 in 10.0 mi East 8.1 mph - N/A   Clear
8:27 AM 75.2 °F - 71.6 °F 89% 30.14 in 10.0 mi East 9.2 mph - N/A   Partly Cloudy
8:53 AM 77.0 °F - 71.1 °F 82% 30.14 in 10.0 mi SE 5.8 mph - N/A   Mostly Cloudy
9:53 AM 81.0 °F 85.2 °F 72.0 °F 74% 30.14 in 10.0 mi SSE 5.8 mph - N/A   Clear
10:53 AM 84.0 °F 89.6 °F 72.0 °F 67% 30.13 in 10.0 mi East 8.1 mph - N/A   Clear
11:53 AM 88.0 °F 94.7 °F 72.0 °F 59% 30.12 in 10.0 mi East 8.1 mph - N/A   Partly Cloudy
12:53 PM 89.1 °F 95.0 °F 71.1 °F 55% 30.12 in 10.0 mi East 11.5 mph - N/A   Partly Cloudy
1:53 PM 89.1 °F 93.7 °F 69.1 °F 52% 30.10 in 10.0 mi ESE 10.4 mph 18.4 mph N/A   Clear
2:53 PM 91.0 °F 95.2 °F 68.0 °F 47% 30.09 in 10.0 mi ESE 10.4 mph - N/A   Partly Cloudy
3:53 PM 91.9 °F 95.9 °F 68.0 °F 45% 30.08 in 10.0 mi ESE 11.5 mph - N/A   Partly Cloudy
4:53 PM 91.0 °F 95.2 °F 68.0 °F 47% 30.07 in 10.0 mi ESE 11.5 mph - N/A   Partly Cloudy
5:53 PM 91.0 °F 93.0 °F 64.9 °F 42% 30.06 in 10.0 mi SE 12.7 mph - N/A   Clear
6:53 PM 90.0 °F 92.8 °F 66.9 °F 46% 30.08 in 10.0 mi ESE 9.2 mph - N/A   Clear
7:53 PM 87.1 °F 90.6 °F 68.0 °F 53% 30.09 in 10.0 mi ESE 5.8 mph - N/A   Clear
8:53 PM 82.0 °F 85.9 °F 70.0 °F 67% 30.11 in 10.0 mi ESE 4.6 mph - N/A   Clear
9:53 PM 79.0 °F - 70.0 °F 74% 30.13 in 10.0 mi SE 4.6 mph - N/A   Clear
10:53 PM 80.1 °F 82.7 °F 68.0 °F 67% 30.15 in 10.0 mi East 3.5 mph - N/A   Clear
11:53 PM 78.1 °F - 70.0 °F 76% 30.14 in 10.0 mi Calm Calm - N/A   Clear